Lid_Strength_Index
3 3 3 3 3 4 4 4 4 4 4 4 4 4 4 3 4 6 10 6 5 -1 -1 1 1 2 3 4 4 5 11 12 11 10 9 6 9 6 6 7 6 6 6 4 3
3 3 3 3 3 4 4 4 4 4 4 4 4 4 4 3 5 8 4 0 -0 -2 2 3 4 3 5 5 5 7 11 10 7 7 8 6 8 7 8 8 7 6 4 3 3
4 4 4 4 4 3 4 4 4 4 4 4 4 4 4 4 8 8 -1 1 -1 -2 4 3 2 4 7 6 6 7 10 7 7 6 6 6 6 6 8 9 8 7 5 4 4
5 5 5 5 4 4 4 4 4 4 4 4 4 4 4 6 16 8 -3 -3 -2 0 4 6 7 6 8 8 6 9 6 6 6 5 6 7 6 7 7 8 6 5 4 4 5
4 5 5 5 5 5 4 4 4 4 4 4 4 4 6 9 11 7 -2 -2 -0 2 4 6 8 8 9 7 7 8 7 6 5 6 6 6 7 7 7 6 5 5 4 5 5
5 5 4 5 5 5 4 4 4 4 4 4 4 4 8 14 8 6 6 7 5 4 5 6 8 7 9 8 8 6 6 6 6 6 6 6 6 7 6 5 5 6 6 5 6
4 5 5 5 4 3 4 4 4 4 4 4 4 5 9 12 8 7 8 8 5 4 6 5 6 7 9 10 8 7 8 7 7 7 8 7 9 8 6 6 6 7 7 6 5
4 4 4 5 5 5 4 3 3 3 5 4 4 6 12 7 7 9 9 9 7 6 5 5 5 8 9 9 9 11 12 13 9 8 7 8 10 7 6 6 7 6 7 6 6
4 4 4 4 4 5 5 4 4 4 3 3 6 8 13 7 9 8 7 9 8 6 6 4 7 9 9 11 13 12 14 13 11 8 8 8 9 7 6 7 7 7 7 6 6
4 4 4 4 4 4 5 4 5 5 5 4 4 9 9 11 8 8 8 7 8 8 8 7 8 11 12 13 16 13 13 12 12 9 8 9 9 7 7 7 7 7 7 6 6
4 4 3 3 4 4 6 8 9 8 8 9 9 10 7 6 5 7 7 8 8 9 12 9 12 14 12 11 9 9 11 12 10 8 9 9 9 8 7 8 7 8 8 7 6
3 3 3 3 3 3 7 10 9 8 12 8 8 8 7 7 9 7 5 9 11 13 11 12 14 11 9 9 10 10 11 11 10 8 10 9 10 8 7 8 8 8 8 8 7
1 1 2 2 2 6 8 8 6 6 12 10 8 8 8 7 9 8 6 7 11 12 12 14 11 9 10 10 10 11 11 11 11 9 9 10 11 10 8 7 7 7 7 6 6
-1 -1 -1 -1 4 6 8 5 6 5 15 13 10 9 7 7 9 6 5 7 9 12 11 12 10 10 11 11 10 12 8 9 9 11 14 10 15 12 10 9 8 8 8 7 6
-1 -1 -1 -1 4 6 5 4 5 7 23 12 11 6 7 9 8 7 5 7 10 10 10 13 12 12 12 12 9 10 8 9 9 11 12 12 14 13 10 10 8 8 8 7 6
-1 -1 -1 0 1 2 1 3 5 14 21 13 8 10 10 9 8 7 7 6 7 9 10 10 9 10 11 9 8 7 8 10 10 12 15 12 13 12 12 9 9 8 7 7 6
-1 -1 -0 -0 4 2 2 4 13 17 10 11 12 11 12 10 9 8 10 11 12 13 13 11 11 9 8 10 8 9 12 15 18 17 17 12 14 12 10 8 8 9 8 7 6
-1 -1 -0 0 1 1 4 9 17 12 12 9 10 10 12 10 10 9 10 12 10 11 13 14 15 11 9 10 11 12 12 15 19 19 16 12 15 12 9 8 7 7 7 6 6
-1 3 3 2 0 3 6 14 14 11 8 10 11 13 13 12 12 11 11 12 10 10 14 14 14 8 8 8 9 12 13 11 14 14 16 14 12 9 9 9 7 7 7 7 6
2 5 5 1 1 3 9 13 11 8 7 8 13 13 16 14 14 13 12 9 10 9 10 12 14 9 9 8 8 10 10 14 15 17 19 15 14 13 12 10 8 8 8 7 7
5 7 3 1 1 6 13 11 9 6 6 9 11 13 14 14 14 14 13 10 9 9 9 11 12 11 9 12 12 12 13 12 13 14 17 19 15 11 10 10 9 8 7 7 6
6 9 3 1 9 8 11 9 7 7 6 8 8 10 12 13 15 14 13 11 9 10 11 10 13 14 12 10 8 10 12 12 14 16 15 15 14 9 9 9 7 7 7 7 6
8 7 3 2 12 11 9 9 8 8 8 9 9 8 9 13 15 13 11 9 9 11 11 10 12 15 14 12 9 11 11 11 13 13 15 16 15 8 8 7 7 7 7 7 7
7 10 6 6 6 9 10 10 10 6 8 7 8 7 9 12 12 14 13 10 10 10 8 9 12 13 15 13 11 12 11 10 12 15 15 13 12 11 9 9 8 7 7 7 6
7 9 7 12 10 9 9 9 11 11 7 8 9 9 10 12 12 14 12 12 11 10 11 13 13 12 11 10 10 10 10 10 11 12 13 12 11 10 9 8 7 7 7 7 6
7 8 6 8 8 9 9 10 10 9 9 10 10 8 8 11 12 14 13 13 14 12 13 13 15 11 12 10 11 12 10 9 10 11 11 11 11 9 7 7 8 7 6 7 6
4 4 6 8 9 10 10 9 10 8 8 7 8 9 10 8 8 9 10 11 12 13 15 15 14 13 14 10 12 14 11 10 10 9 10 12 10 9 9 7 7 7 6 6 6